Taylor Fork

This weather station provides wind speed, gust or max wind speed, and wind direction at 9460 ft. near Pika Point above Sunlight Basin.  

This data can be used with temperature and precipitation data from the Carrot Basin SNOTEL site. If the data below is not displayed or up to date, view data here.

This weather station was purchased by the Friends of the Avalanche Center.

Elevation
9460ft
Jump to table bottom
Date Time Temperature
deg F
RH, % Wind Speed Wind Gust Wind Direction
12/08/19 12:00 23.1 96 7 21 NW - 305
12/08/19 11:00 22.6 96 11 23 W - 263
12/08/19 10:00 23.5 96 10 17 W - 251
12/08/19 09:00 22.7 96 10 19 SW - 237
12/08/19 08:00 23.1 96 9 20 SW - 234
12/08/19 07:00 23.1 96 9 17 SW - 222
12/08/19 06:00 23.4 96 9 17 SW - 222
12/08/19 05:00 23.7 96 12 21 SW - 216
12/08/19 04:00 23.6 96 11 19 SW - 215
12/08/19 03:00 23.4 96 14 27 SW - 219
12/08/19 02:00 23.3 96 14 29 SW - 226
12/08/19 01:00 23.0 96 11 20 SW - 222
12/08/19 00:00 22.7 96 16 27 SW - 237
12/07/19 23:00 22.6 96 16 28 SW - 236
12/07/19 22:00 22.5 96 13 24 SW - 223
12/07/19 21:00 22.2 96 12 22 SW - 213
12/07/19 20:00 21.9 95 12 21 SW - 216
12/07/19 19:00 22.1 96 18 29 SW - 233
12/07/19 18:00 21.9 95 15 28 SW - 239
12/07/19 17:00 21.7 95 15 24 SW - 223
12/07/19 16:00 21.6 95 15 25 SW - 218
12/07/19 15:00 21.6 95 15 32 SW - 225
12/07/19 14:00 21.5 95 16 27 SW - 213
12/07/19 13:00 21.9 95 15 31 SW - 204
12/07/19 12:00 21.6 95 17 30 S - 188
12/07/19 11:00 21.7 95 16 25 S - 192
12/07/19 10:00 21.8 95 16 26 SW - 204
12/07/19 09:00 21.6 95 17 33 S - 197
12/07/19 08:00 21.5 95 15 29 S - 202
12/07/19 07:00 21.6 95 16 28 S - 198
12/07/19 06:00 21.7 95 16 28 SW - 220
12/07/19 05:00 21.5 95 16 28 SW - 219
12/07/19 04:00 21.1 95 17 32 SW - 208
12/07/19 03:00 20.8 95 21 35 S - 192
12/07/19 02:00 20.7 95 21 34 S - 202
12/07/19 01:00 20.4 95 13 27 SW - 226
12/07/19 00:00 19.8 94 10 20 S - 201
12/06/19 23:00 19.8 94 15 23 S - 187
12/06/19 22:00 19.4 94 20 30 S - 184
12/06/19 21:00 19.1 94 16 26 S - 190
12/06/19 20:00 18.7 94 16 26 S - 191
12/06/19 19:00 18.4 94 18 31 S - 167
12/06/19 18:00 18.2 94 18 25 S - 175
12/06/19 17:00 18.1 94 20 27 S - 181
12/06/19 16:00 18.0 93 18 28 S - 170
12/06/19 15:00 18.1 93 13 22 S - 168
12/06/19 14:00 18.5 94 14 21 S - 177
12/06/19 13:00 18.9 94 13 21 S - 190
12/06/19 12:00 18.5 93 14 21 S - 178
12/06/19 11:00 17.9 93 11 16 S - 184